TimeCST,TemperatureF,Dew PointF,Humidity,Sea Level PressureIn,VisibilityMPH,Wind Direction,Wind SpeedMPH,Gust SpeedMPH,PrecipitationIn,Events,Conditions,WindDirDegrees,DateUTC
12:53 AM,34.0,30.0,85,30.19,9.0,ENE,3.5,-,N/A,,Clear,60,2013-12-16 06:53:00
1:53 AM,33.1,30.0,89,30.19,8.0,Calm,Calm,-,N/A,,Clear,0,2013-12-16 07:53:00
2:53 AM,32.0,28.0,85,30.18,8.0,ENE,3.5,-,N/A,,Clear,60,2013-12-16 08:53:00
3:53 AM,30.9,28.0,89,30.18,7.0,Calm,Calm,-,N/A,,Clear,0,2013-12-16 09:53:00
4:53 AM,30.9,27.0,85,30.18,7.0,Calm,Calm,-,N/A,,Clear,0,2013-12-16 10:53:00
5:53 AM,30.0,27.0,88,30.18,6.0,Calm,Calm,-,N/A,,Clear,0,2013-12-16 11:53:00
6:53 AM,30.0,27.0,88,30.19,8.0,Calm,Calm,-,N/A,,Clear,0,2013-12-16 12:53:00
7:53 AM,30.9,28.0,89,30.20,7.0,Calm,Calm,-,N/A,,Clear,0,2013-12-16 13:53:00
8:53 AM,34.0,30.9,89,30.21,7.0,East,3.5,-,N/A,,Clear,90,2013-12-16 14:53:00
9:53 AM,39.9,33.1,77,30.22,10.0,NE,3.5,-,N/A,,Clear,50,2013-12-16 15:53:00
10:53 AM,46.0,35.1,66,30.19,10.0,ENE,3.5,-,N/A,,Clear,70,2013-12-16 16:53:00
11:53 AM,53.1,36.0,52,30.15,10.0,Calm,Calm,-,N/A,,Clear,0,2013-12-16 17:53:00
12:53 PM,57.0,36.0,45,30.13,10.0,NNE,3.5,-,N/A,,Clear,30,2013-12-16 18:53:00
1:53 PM,61.0,36.0,39,30.10,10.0,Calm,Calm,-,N/A,,Clear,0,2013-12-16 19:53:00
2:53 PM,64.9,36.0,34,30.10,10.0,Calm,Calm,-,N/A,,Clear,0,2013-12-16 20:53:00
3:53 PM,62.1,39.0,43,30.12,10.0,ENE,3.5,-,N/A,,Clear,60,2013-12-16 21:53:00
4:53 PM,59.0,37.9,46,30.12,10.0,Calm,Calm,-,N/A,,Clear,0,2013-12-16 22:53:00
5:53 PM,55.0,34.0,45,30.11,10.0,SSW,8.1,-,N/A,,Clear,210,2013-12-16 23:53:00
6:53 PM,51.1,33.1,50,30.12,10.0,WSW,3.5,-,N/A,,Clear,250,2013-12-17 00:53:00
7:53 PM,43.0,35.1,74,30.14,10.0,Calm,Calm,-,N/A,,Clear,0,2013-12-17 01:53:00
8:53 PM,45.0,35.1,68,30.16,10.0,Calm,Calm,-,N/A,,Clear,0,2013-12-17 02:53:00
9:53 PM,39.0,34.0,82,30.17,10.0,Calm,Calm,-,N/A,,Clear,0,2013-12-17 03:53:00
10:53 PM,37.9,33.1,83,30.18,10.0,Calm,Calm,-,N/A,,Clear,0,2013-12-17 04:53:00
11:53 PM,35.1,30.9,85,30.19,10.0,Calm,Calm,-,N/A,,Clear,0,2013-12-17 05:53:00